Location: Township of Marena
(38.1747°N, 99.6798°W)
Time: 03:45:03
(UTC+00:00)

In-Cosmos 22 Rocket - Pass Details

Date: 26 October 2020
Orbit: 790 x 888 km, 81.2° (Epoch: 24 November)

Event Time Altitude Azimuth Distance (km) Brightness Sun altitude
Rises 01:23:33 0° 349° (N) 3,306 7.4 -19.6°
Reaches altitude 10° 01:25:54 10° 349° (NNW) 2,379 6.7 -20.1°
Maximum altitude 01:31:16 80° 263° (W) 826 4.2 -21.1°
Drops below altitude 10° 01:36:43 10° 177° (S) 2,417 6.5 -22.2°
Sets 01:39:08 0° 176° (S) 3,361 7.3 -22.7°
